Weather History for Perry, IA

Change the Weather History Date:

Wednesday, November 10, 2010

  Actual Average Record
Temperature  
Mean Temperature 52 °F -  
Max Temperature 69 °F 47 °F 78 °F (2012)
Min Temperature 35 °F 27 °F 11 °F (1960)
Degree Days  
Heating Degree Days 13    
Growing Degree Days 2 (Base 50)    
Moisture  
Dew Point 46 °F    
Average Humidity 70    
Maximum Humidity 93    
Minimum Humidity 53    
Precipitation  
Precipitation 0.00 in - - ()
Sea Level Pressure  
Sea Level Pressure 29.92 in    
Wind  
Wind Speed 18 mph (SW)    
Max Wind Speed 24 mph    
Max Gust Speed 29 mph    
Visibility 9 miles    
Events      
Averages and records for this station are not official NWS values.
T = Trace of Precipitation, MM = Missing Value Source: NWS Daily Summary

Daily Weather History Graph

Daily Weather History Graph

Search for Another Location

Airport:

Trip Planner

Search our weather history database for the weather conditions in past years. The results will help you decide how hot, cold, wet, or windy it might be!

Date:

Astronomy

Nov. 10, 2010 Rise Set
Actual Time 6:59 AM CST 5:00 PM CST
Civil Twilight 6:30 AM CST 5:30 PM CST
Nautical Twilight 5:57 AM CST 6:03 PM CST
Astronomical Twilight 5:24 AM CST 6:36 PM CST
Moon 11:25 AM CST (11/10) 9:02 PM CST (11/10)
Length of Visible Light 10h 59m
Length of Day
10h 00m
Waxing Crescent, 23% of the Moon is Illuminated
Nov 10
Waxing Crescent
Nov 13
First Quarter
Nov 21
Full
Nov 28
Last Quarter
Dec 5
New

Hourly Weather History & Observations

Time (CST) Temp. Windchill Dew Point Humidity Pressure Visibility Wind Dir Wind Speed Gust Speed Precip Events Conditions
8:55 AM 60.8 °F - 50.0 °F 68% 29.81 in 10.0 mi SSE 17.3 mph 23.0 mph N/A   Clear
9:15 AM 62.6 °F - 50.0 °F 63% 29.81 in 10.0 mi SSE 18.4 mph 24.2 mph N/A   Clear
9:35 AM 64.4 °F - 50.0 °F 59% 29.81 in 10.0 mi South 23.0 mph 26.5 mph N/A   Clear
9:55 AM 64.4 °F - 50.0 °F 59% 29.80 in 10.0 mi South 23.0 mph 26.5 mph N/A   Clear
10:15 AM 66.2 °F - 51.8 °F 60% 29.80 in 10.0 mi South 20.7 mph 26.5 mph N/A   Clear
10:35 AM 68.0 °F - 51.8 °F 56% 29.80 in 10.0 mi South 23.0 mph 27.6 mph N/A   Scattered Clouds
10:55 AM 68.0 °F - 51.8 °F 56% 29.80 in 10.0 mi SSE 24.2 mph 27.6 mph N/A   Clear
11:15 AM 68.0 °F - 51.8 °F 56% 29.79 in 10.0 mi South 23.0 mph 28.8 mph N/A   Clear
11:35 AM 68.0 °F - 51.8 °F 56% 29.79 in 10.0 mi South 19.6 mph 25.3 mph N/A   Clear
11:55 AM 68.0 °F - 51.8 °F 56% 29.79 in 10.0 mi South 18.4 mph 25.3 mph N/A   Mostly Cloudy
12:15 PM 69.8 °F - 51.8 °F 53% 29.78 in 10.0 mi SSE 20.7 mph 26.5 mph N/A   Mostly Cloudy
12:35 PM 68.0 °F - 51.8 °F 56% 29.78 in 10.0 mi South 19.6 mph 25.3 mph N/A   Scattered Clouds
12:55 PM 68.0 °F - 51.8 °F 56% 29.79 in 10.0 mi South 17.3 mph 25.3 mph N/A   Overcast
1:15 PM 68.0 °F - 51.8 °F 56% 29.80 in 10.0 mi South 23.0 mph 27.6 mph N/A   Overcast
1:35 PM 66.2 °F - 51.8 °F 60% 29.81 in 10.0 mi SSW 21.9 mph 27.6 mph N/A   Overcast
1:55 PM 66.2 °F - 51.8 °F 60% 29.81 in 10.0 mi South 16.1 mph 21.9 mph N/A   Overcast
2:15 PM 66.2 °F - 51.8 °F 60% 29.81 in 10.0 mi South 18.4 mph 23.0 mph N/A   Overcast
2:35 PM 66.2 °F - 51.8 °F 60% 29.82 in 10.0 mi South 18.4 mph - N/A   Overcast
2:55 PM 68.0 °F - 53.6 °F 60% 29.82 in 10.0 mi South 17.3 mph - N/A   Overcast
3:15 PM 66.2 °F - 53.6 °F 64% 29.82 in 10.0 mi South 19.6 mph 26.5 mph N/A   Mostly Cloudy
3:35 PM 66.2 °F - 53.6 °F 64% 29.83 in 10.0 mi South 17.3 mph - N/A   Mostly Cloudy
3:55 PM 66.2 °F - 51.8 °F 60% 29.83 in 10.0 mi SSW 18.4 mph 24.2 mph N/A   Mostly Cloudy
4:15 PM 66.2 °F - 50.0 °F 56% 29.85 in 10.0 mi South 17.3 mph 24.2 mph N/A   Mostly Cloudy
4:35 PM 60.8 °F - 50.0 °F 68% 29.87 in 10.0 mi WSW 20.7 mph - N/A   Scattered Clouds
4:55 PM 59.0 °F - 50.0 °F 72% 29.89 in 10.0 mi WSW 17.3 mph - N/A   Mostly Cloudy
5:15 PM 57.2 °F - 48.2 °F 72% 29.91 in 10.0 mi West 20.7 mph 25.3 mph N/A   Mostly Cloudy
5:35 PM 53.6 °F - 46.4 °F 77% 29.92 in 10.0 mi West 19.6 mph 27.6 mph N/A   Scattered Clouds
5:55 PM 53.6 °F - 44.6 °F 72% 29.94 in 7.0 mi West 15.0 mph 24.2 mph N/A   Mostly Cloudy
6:15 PM 51.8 °F - 44.6 °F 76% 29.95 in 7.0 mi West 15.0 mph - N/A   Scattered Clouds
6:35 PM 50.0 °F - 44.6 °F 82% 29.97 in 10.0 mi West 19.6 mph - N/A   Scattered Clouds
6:55 PM 50.0 °F - 44.6 °F 82% 29.99 in 10.0 mi West 17.3 mph 26.5 mph N/A   Overcast
7:15 PM 50.0 °F - 42.8 °F 76% 30.00 in 5.0 mi West 19.6 mph 24.2 mph N/A   Haze
7:35 PM 50.0 °F - 42.8 °F 76% 30.01 in 7.0 mi West 15.0 mph 25.3 mph N/A   Overcast
7:55 PM 50.0 °F - 42.8 °F 76% 30.03 in 7.0 mi West 20.7 mph 26.5 mph N/A   Overcast
8:15 PM 48.2 °F - 41.0 °F 76% 30.04 in 10.0 mi WNW 10.4 mph 20.7 mph N/A   Mostly Cloudy
8:35 PM 46.4 °F 41.5 °F 41.0 °F 81% 30.05 in 10.0 mi West 10.4 mph - N/A   Scattered Clouds
8:55 PM 46.4 °F 42.4 °F 41.0 °F 81% 30.06 in 10.0 mi WNW 8.1 mph - N/A   Clear
9:15 PM 44.6 °F 40.2 °F 39.2 °F 81% 30.07 in 10.0 mi West 8.1 mph - N/A   Clear
9:35 PM 42.8 °F 37.5 °F 39.2 °F 87% 30.07 in 7.0 mi West 9.2 mph - N/A   Clear
9:55 PM 41.0 °F 38.0 °F 37.4 °F 87% 30.09 in 7.0 mi WSW 4.6 mph - N/A   Clear
10:15 PM 41.0 °F 38.0 °F 37.4 °F 87% 30.10 in 7.0 mi WSW 4.6 mph - N/A   Clear
10:35 PM 39.2 °F 35.0 °F 35.6 °F 87% 30.10 in 7.0 mi West 5.8 mph - N/A   Clear
10:55 PM 37.4 °F 33.8 °F 35.6 °F 93% 30.11 in 7.0 mi WSW 4.6 mph - N/A   Clear
11:15 PM 35.6 °F 29.9 °F 33.8 °F 93% 30.12 in 5.0 mi WSW 6.9 mph - N/A   Clear
11:35 PM 35.6 °F 29.2 °F 33.8 °F 93% 30.13 in 10.0 mi WSW 8.1 mph - N/A   Clear
11:55 PM 35.6 °F 30.7 °F 33.8 °F 93% 30.14 in 10.0 mi WSW 5.8 mph - N/A   Clear